Location: Lucerne Valley
(34.4439°N, 116.9669°E)
Time: 17:28:07
(UTC-08:00)

Vanguard 1 Rocket - Visible Passes

Search period start: 17 December 2017 00:00
Search period end: 27 December 2017 00:00
Orbit: 656 x 4222 km, 34.3° (Epoch: 16 December)

Date Brightness Start Highest point End Pass type
(mag) Time Alt. Az. Time Alt. Az. Time Alt. Az.
17 Dec 9.6 03:10:52 10° W 03:23:01 87° S 03:33:59 38° ESE visible
17 Dec 10.3 05:37:08 10° WNW 05:51:17 60° SW 05:51:17 60° SW visible
17 Dec 11.6 08:07:13 10° W 08:47:43 - SSE 08:08:36 13° W visible
18 Dec 9.3 02:00:02 10° W 02:09:52 90° S 02:27:05 15° E visible
18 Dec 9.9 04:25:26 10° W 04:39:52 74° SSW 04:44:24 62° SE visible
18 Dec 11.0 06:53:09 10° W 07:39:44 - SSE 07:01:43 32° WSW visible
19 Dec 9.6 03:14:16 10° W 03:26:10 83° SSW 03:37:37 35° ESE visible
19 Dec 10.4 05:40:32 10° W 05:54:57 54° SW 05:54:57 54° SW visible
19 Dec 11.6 08:11:51 10° W 08:48:50 - S 08:12:17 11° W visible
20 Dec 9.3 02:03:29 10° W 02:13:08 89° S 02:30:57 14° E visible
20 Dec 10.0 04:28:49 10° WNW 04:42:49 67° SSW 04:48:18 55° SSE visible
20 Dec 11.1 06:56:59 10° W 07:40:36 - SSE 07:05:39 28° WSW visible
21 Dec 9.6 03:17:41 10° W 03:29:17 78° SSW 03:41:48 31° ESE visible
21 Dec 10.5 05:44:04 10° W 05:59:10 47° SW 05:59:10 47° SW visible
21 Dec11.708:49:24S08:49:24S08:16:33Wvisible
22 Dec 9.3 02:06:55 10° W 02:16:23 86° S 02:35:30 10° ESE visible
22 Dec 10.1 04:32:15 10° W 04:45:46 59° SSW 04:52:54 45° SSE visible
22 Dec 11.2 07:01:16 10° W 07:40:49 - SSE 07:10:17 25° WSW visible
23 Dec 9.7 03:21:05 10° W 03:32:23 70° SSW 03:46:53 24° SE visible
23 Dec 10.7 05:47:49 10° W 06:02:27 39° SSW 06:04:18 38° SSW visible
23 Dec11.808:49:07S08:49:07S08:21:45WSWvisible
24 Dec 9.3 02:10:21 10° W 02:19:37 80° SSW 02:38:31 10° ESE visible
24 Dec 10.3 04:35:46 10° W 04:48:44 50° SSW 04:58:41 33° SSE visible
24 Dec 11.4 07:06:16 10° W 07:39:57 - S 07:16:10 21° SW visible
25 Dec 9.8 03:24:32 10° W 03:35:29 61° SSW 03:53:41 15° SE visible
25 Dec 11.0 05:51:54 10° W 06:05:22 31° SW 06:11:14 28° SSW visible
26 Dec 9.3 02:13:47 10° W 02:22:49 73° SSW 02:41:09 10° ESE visible
26 Dec 10.5 04:39:28 10° W 04:51:46 41° SSW 05:07:39 17° SSE visible
26 Dec 11.6 07:12:49 10° WSW 07:22:14 15° SW 07:25:29 14° SSW visible
